Regional Weather Roundup
Issued by NWS Newport/Morehead, NC

Current Version | Previous Version | Graphics & Text | Print | Product List | Glossary Off
Versions: 1 2 3 4 5 6 7 8 9 10 11 12 13 14 15 16 17 18 19 20 21 22 23 24 25 26 27 28 29 30 31 32 33 34 35 36 37 38 39 40 41 42 43 44 45 46 47 48 49 50

000
ASUS42 KMHX 281213
RWRMHX
WEATHER ROUNDUP FOR EASTERN NORTH CAROLINA
NATIONAL WEATHER SERVICE NEWPORT/MOREHEAD CITY NC
800 AM EDT FRI AUG 28 2015

NOTE: "FAIR" INDICATES FEW OR NO CLOUDS BELOW 12,000 FEET
WITH NO SIGNIFICANT WEATHER AND/OR OBSTRUCTIONS TO VISIBILITY

NCZ015>017-031-032-045>047-102-103-281300-
NORTH COAST

CITY           SKY/WX    TMP DP  RH WIND       PRES   REMARKS
EDENTON        MOSUNNY   66  61  84 N3        30.15R
ELIZABETH CITY MOSUNNY   71  64  78 N8        30.14R
KITTY HAWK     PTSUNNY   76  62  60 NE6       30.11R
MANTEO         PTSUNNY   75  62  64 NE13      30.12R

$$

NCZ045>047-081-094-103-104-281300-
CENTRAL COAST

CITY           SKY/WX    TMP DP  RH WIND       PRES   REMARKS
FRISCO         PTSUNNY   75  64  68 NE9       30.09R
SWANQUARTER    NOT AVBL

$$

NCZ095-097-098-100-101-281300-
SOUTHERN COAST

CITY           SKY/WX    TMP DP  RH WIND       PRES   REMARKS
BEAUFORT       MOSUNNY   74  70  87 NE6       30.10R
CEDAR ISLAND   NOT AVBL
JACKSONVILLE   MOSUNNY   70  64  81 N5        30.11R
PINEY ISLAND   MOSUNNY  N/A N/A N/A NE13      30.10R
WILMINGTON     MOSUNNY   71  65  81 N9        30.10R


$$

NCZ011>013-027>030-043-044-078>080-089-090>093-098-281300-
COASTAL PLAIN

CITY           SKY/WX    TMP DP  RH WIND       PRES   REMARKS
AHOSKIE        SUNNY     64  60  88 N5        30.16S
CLINTON        MOSUNNY   67  64  88 NE3       30.14R
ELIZABETHTOWN  MOSUNNY   67  64  91 CALM      30.13R
GOLDSBORO      MOSUNNY   67  63  87 NE7       30.13R
GREENVILLE     MOSUNNY   64  63  94 CALM      30.16R
HAVELOCK       PTSUNNY   74  65  73 NE12      30.12R
KENANSVILLE      N/A     67  63  86 N5        30.15R
KINSTON        MOSUNNY   66  64  94 N6        30.15R
NEW BERN       PTSUNNY   71  65  81 N7        30.14R
RICHLANDS      SUNNY     68  61  77 NE7       30.12S
ROCKY MOUNT    SUNNY     65  62  90 NE5       30.16R
WASHINGTON     MOSUNNY   69  63  83 CALM      30.14R
WHITEVILLE     MOSUNNY   69  64  84 NE6       30.11R

$$

AMZ130-135-150-152-154-156-158-170-250-252-270-ANZ085-086-088-633-658-670-281300-
MARINE OBSERVATIONS

STATION/POSITION TIME  TEMP    WIND        PRES    WAVE   SWELL
                       AIR SEA DIR/SP/G            HT/PER HT/PER
                 (UTC) (F)     (DEG/KT/KT) (MB)    (FT/S) (FT/S)
CHESAPEAKE LIGHT 1200   75      30/ 15/ 16 1021.1
64 E VA BEACH    1150   77 79   50/ 14/ 17 1019.5    4/11   3/11
DUCK             1100   76 78   40/ 13/ 17 1018.9
2 E DUCK         1111      78                N/A     4/ 4   2/11
OREGON INLET     1100   76 76   30/ 12/ 16 1019.2
13E OREGON INLT  1200      79                N/A     5/ 5   2/11
HATTERAS CG      1100   76 79   30/ 11/ 16 1018.3
DIAMOND BUOY     1150   78 82   40/ 19/ 23 1018.0    5/ 6   2/10
CAPE LOOKOUT     1200   78      40/ 17/ 20 1018.7
BEAUFORT LAB     1100   73 79   30/  5/  7 1018.0
30 SE NEW RVR IN NOT AVBL
30 SE NEW RVR IN 1125      82                N/A     4/ 5   2/11
27 SE WRIGHTSVLE NOT AVBL
5 SE WRIGHTSVLE  NOT AVBL
225 S CAPE HAT   1150   81 84  180/  6/  8 1017.4    3/ 8   3/ 8
41 SE CHARLESTON 1150   81 84   30/  8/ 10 1017.2    3/ 9   3/ 9

$$


USA.gov is the U.S. government's official web portal to all federal, state and local government web resources and services.